Content
SEND FEEDBACK

Daily
Averages
Monthly
Summary
United States of America

GREEN OAKS, MISSOURI


Home > North America > United States > Missouri
Elevation: 328 feet     Latitude: 36 47N     Longitude: 090 12W

WEATHER
 
SELECT A DAY
Number of Records: 210,169;   Date Range: 1/1/95 - 9/30/14
 
SHARE

PRINT THIS DATA

[ ← Previous Day ]
WEATHER ALMANAC - JANUARY 9, 2013
[ Next Day → ]
[ °C ]   °F
Weather ElementAverageHighLow
Temperature50.4 °F59 °F (2:53 pm)44.1 °F (2:53 am)
Dewpoint43.1 °F46 °F (11:53 am)41 °F (1:53 am)
Humidity76.8 %93 % (7:11 am)62 % (12:53 pm)
Barometer30.35 in30.41 in (10:53 pm)30.25 in (1:53 am)
Wind Speed5 mph10.4 mph (12:53 pm)
Weather ElementAverage
Visibility9.4 mi
Wind DirectionENE (55.4 °)

Weather ElementTotal
Precipitation0.02 in
Heating Degree Days13.5 (Base 65)
Growing Degree Days1.6 (Base 50)
Averaged from 26 records on January 9, 2013
WEATHER CONDITIONS BREAKOUT
WIND DIRECTION BREAKOUT
WEATHER BY HOUR - JANUARY 9, 2013
[ °C ]   °F
Local TimeTemperatureDewpointHumidityBarometerVisibilityWind DirectionWind SpeedGust SpeedPrecipitationEventsConditions
1:53 AM45.0 °F41.0 °F86 %30.25 in10.0 miCalm0.00 inScattered Clouds
2:53 AM44.1 °F41.0 °F89 %30.25 in9.0 miCalmMostly Cloudy
3:53 AM46.9 °F42.1 °F83 %30.27 in10.0 miNorth (350°)3.5 mphOvercast
4:17 AM46.4 °F42.8 °F87 %30.27 in10.0 miNNW (330°)5.8 mphOvercast
4:53 AM48.0 °F42.1 °F80 %30.28 in10.0 miNorth (10°)3.5 mphOvercast
5:53 AM46.9 °F43.0 °F86 %30.30 in10.0 miEast (80°)3.5 mph0.00 inOvercast
6:16 AM46.4 °F42.8 °F87 %30.30 in10.0 miCalmScattered Clouds
6:35 AM46.4 °F42.8 °F87 %30.32 in10.0 miCalmMostly Cloudy
6:53 AM45.0 °F42.1 °F90 %30.34 in6.0 miCalmOvercast
7:11 AM44.6 °F42.8 °F93 %30.34 in7.0 miCalmOvercast
7:53 AM46.0 °F44.1 °F93 %30.37 in5.0 miCalmOvercast
8:53 AM48.0 °F44.1 °F86 %30.40 in7.0 miCalmOvercast
10:53 AM54.0 °F45.0 °F72 %30.38 in10.0 miNE (40°)5.8 mphClear
11:53 AM55.9 °F46.0 °F69 %30.36 in10.0 miNNE (30°)5.8 mphOvercast
12:53 PM57.0 °F44.1 °F62 %30.35 in10.0 miNE (50°)10.4 mphClear
1:53 PM57.9 °F45.0 °F62 %30.35 in10.0 miENE (60°)8.1 mphClear
2:53 PM59.0 °F46.0 °F62 %30.35 in10.0 miENE (70°)8.1 mphClear
3:53 PM57.0 °F45.0 °F64 %30.36 in10.0 miENE (60°)4.6 mphClear
4:53 PM55.0 °F42.1 °F62 %30.37 in10.0 miNE (50°)8.1 mphClear
5:53 PM53.1 °F43.0 °F69 %30.38 in10.0 miNE (50°)9.2 mphClear
6:53 PM53.1 °F43.0 °F69 %30.39 in10.0 miNE (50°)6.9 mphClear
7:53 PM52.0 °F43.0 °F71 %30.40 in10.0 miNE (40°)9.2 mphClear
8:53 PM52.0 °F42.1 °F69 %30.40 in10.0 miNE (40°)10.4 mphPartly Cloudy
9:53 PM51.1 °F42.1 °F71 %30.40 in10.0 miNE (50°)8.1 mphOvercast
10:53 PM51.1 °F42.1 °F71 %30.41 in10.0 miNE (40°)9.2 mphOvercast
11:53 PM48.9 °F42.1 °F77 %30.39 in10.0 miNE (40°)10.4 mph0.02 inRainLight Rain
Hourly data recorded from KPOF, located miles away from Green Oaks, Missouri







STORIES FROM OUR PARTNERS